FW2726 Weather Reports


time (UTC)temp
C
wind
direction
speed
KPH
gust
KPH
rain 1hr
cm
rain 24hr
cm
rain mn
cm
humidity
%
barometer
mb
20260502233110 20 316 16.1 27.4 0.00 0.00 0.00 26 1012.2
20260502231612 20 297 14.5 25.7 0.00 0.00 0.00 26 1012.4
20260502230101 20 313 17.7 27.4 0.00 0.00 0.00 28 1012.5
20260502224600 20 311 11.3 25.7 0.00 0.00 0.00 28 1012.8
20260502223058 19 341 14.5 25.7 0.00 0.00 0.00 28 1013.0
20260502221605 19 325 19.3 30.6 0.00 0.00 0.00 27 1013.1
20260502220106 19 311 16.1 30.6 0.00 0.00 0.00 27 1013.2
20260502214609 19 316 8.0 25.7 0.00 0.00 0.00 28 1013.3
20260502213059 19 314 14.5 29.0 0.00 0.00 0.00 28 1013.4
20260502211607 19 325 17.7 35.4 0.00 0.00 0.00 29 1013.5
20260502210109 18 314 16.1 30.6 0.00 0.00 0.00 30 1013.5
20260502204558 18 52 19.3 32.2 0.00 0.00 0.00 28 1013.7
20260502203110 18 31 20.9 35.4 0.00 0.00 0.00 31 1014.0
20260502201600 18 340 14.5 27.4 0.00 0.00 0.00 29 1014.2
20260502200101 18 300 22.5 30.6 0.00 0.00 0.00 29 1014.4
20260502194559 18 310 16.1 30.6 0.00 0.00 0.00 29 1014.6
20260502193100 17 315 14.5 30.6 0.00 0.00 0.00 32 1014.5
20260502191558 17 303 16.1 24.1 0.00 0.00 0.00 33 1014.7
20260502190058 17 299 24.1 37.0 0.00 0.00 0.00 33 1015.1
20260502184558 17 305 19.3 40.2 0.00 0.00 0.00 33 1015.2
20260502183101 17 305 19.3 35.4 0.00 0.00 0.00 32 1015.3
20260502181559 17 316 17.7 33.8 0.00 0.00 0.00 33 1015.4
20260502163105 15 306 14.5 22.5 0.00 0.00 0.00 43 1016.1
20260502161600 15 293 17.7 22.5 0.00 0.00 0.00 43 1016.2
20260502160104 15 288 16.1 22.5 0.00 0.00 0.00 47 1016.3
20260502151612 12 308 4.8 9.7 0.00 0.00 0.00 53 1016.7
20260502150114 12 341 4.8 12.9 0.00 0.00 0.00 55 1016.8
20260502123111 0 285 3.2 6.4 0.00 0.00 0.00 87 1016.2
20260502121603 0 285 1.6 6.4 0.00 0.00 0.00 86 1016.1
20260502120113 0 256 4.8 6.4 0.00 0.00 0.00 86 1016.0
20260502114604 0 256 3.2 4.8 0.00 0.00 0.00 87 1015.8
20260502113101 0 256 6.4 9.7 0.00 0.00 0.00 87 1015.8
20260502111602 1 33 3.2 4.8 0.00 0.00 0.00 87 1015.8
20260502110059 1 33 3.2 4.8 0.00 0.00 0.00 86 1015.6
20260502104600 1 0 1.6 4.8 0.00 0.00 0.00 85 1015.6
20260502103114 1 33 1.6 3.2 0.00 0.00 0.00 84 1015.4
20260502101559 1 33 1.6 3.2 0.00 0.00 0.00 84 1015.2
20260502100124 1 33 1.6 3.2 0.00 0.00 0.00 84 1015.2
20260502090112 1 0 0.0 0.0 0.00 0.00 0.00 82 1014.7
20260502070101 3 0 0.0 1.6 0.00 0.00 0.00 77 1014.2
20260502064609 4 0 0.0 3.2 0.00 0.00 0.00 75 1014.2
20260502063103 5 33 3.2 4.8 0.00 0.00 0.00 72 1014.1
20260502061601 5 33 1.6 4.8 0.00 0.00 0.00 71 1014.0
20260502054600 6 33 3.2 11.3 0.00 0.00 0.00 71 1013.6
20260502053101 6 9 6.4 11.3 0.00 0.00 0.00 70 1013.4
20260502051659 6 13 8.0 14.5 0.00 0.00 0.00 71 1013.3
20260502050101 6 24 3.2 8.0 0.00 0.00 0.00 69 1013.2
20260502044609 7 306 3.2 6.4 0.00 0.00 0.00 66 1013.0
20260502043109 8 306 4.8 6.4 0.00 0.00 0.00 63 1012.8
20260502041600 8 306 1.6 4.8 0.00 0.00 0.00 61 1012.7
20260502040100 10 306 6.4 8.0 0.00 0.00 0.00 57 1012.8
20260502034600 11 316 6.4 9.7 0.00 0.00 0.00 55 1012.7
20260502033100 12 322 6.4 12.9 0.00 0.00 0.00 53 1012.5
20260502031611 12 322 9.7 14.5 0.00 0.00 0.00 52 1012.5
20260502030058 13 330 9.7 16.1 0.00 0.00 0.00 49 1012.2
20260502024559 14 328 11.3 19.3 0.00 0.00 0.00 47 1012.1
20260502023101 15 330 16.1 24.1 0.00 0.00 0.00 44 1012.0
20260502021603 15 320 16.1 22.5 0.00 0.00 0.00 44 1011.9
20260502020111 16 332 17.7 25.7 0.00 0.00 0.00 42 1011.8
20260502014600 16 334 22.5 37.0 0.00 0.00 0.00 39 1011.6
20260502013107 17 337 25.7 37.0 0.00 0.00 0.00 38 1011.6
20260502011559 17 343 25.7 37.0 0.00 0.00 0.00 38 1011.6
20260502010101 18 12 22.5 35.4 0.00 0.00 0.00 38 1011.5
20260502004559 19 331 29.0 45.1 0.00 0.00 0.00 36 1011.4
20260502003103 19 359 29.0 41.8 0.00 0.00 0.00 37 1011.2
20260502001603 18 354 22.5 41.8 0.00 0.00 0.00 38 1011.3
20260502000101 19 351 22.5 33.8 0.00 0.00 0.00 35 1011.0
20260501234601 20 350 24.1 38.6 0.00 0.00 0.00 32 1010.8